Temp
54 53 52 53 52 51 48 43 34 49 52 36 37 33 41 50 54 56 55 54 55 51 52 51 53 53 60 66 64 55 56 50 45 50 53 58 58 52 50 42 40 41 39 42
53 53 51 52 52 51 46 39 39 47 48 32 32 37 42 46 50 50 50 50 54 54 52 47 51 54 63 64 64 56 56 46 40 42 48 51 51 51 49 46 42 40 39 43
53 52 51 52 52 51 46 35 32 37 40 45 37 35 36 39 51 50 50 48 51 49 50 50 49 51 59 62 63 61 64 48 49 46 46 50 48 50 51 49 39 43 43 50
53 52 52 52 51 51 46 35 33 38 31 34 35 36 38 39 39 49 49 45 47 45 44 46 46 50 54 61 62 57 56 46 49 52 56 55 56 53 51 50 51 47 50 49
53 53 53 52 51 51 43 33 35 38 33 38 38 37 33 38 43 42 44 42 46 46 42 44 43 48 49 50 55 52 50 46 48 48 54 55 53 55 54 56 51 50 53 50
52 53 53 52 51 50 41 39 42 39 35 36 36 36 37 39 42 44 47 45 44 43 46 51 51 51 51 50 49 48 48 45 41 39 49 49 45 54 53 53 53 54 49 55
53 53 52 52 52 50 42 42 42 35 32 34 35 41 40 40 41 39 45 46 42 48 53 52 50 47 50 51 48 50 46 44 42 38 44 35 49 57 60 58 56 55 55 57
53 52 51 51 52 51 44 45 42 35 32 36 36 40 40 42 43 41 41 46 49 48 49 42 40 39 42 48 50 48 49 43 39 37 33 44 48 51 53 53 53 58 58 57
53 53 53 52 52 51 45 45 46 40 34 33 40 39 40 35 33 35 40 45 47 46 44 39 31 32 39 39 44 48 46 47 44 33 35 35 46 55 58 58 47 56 60 56
53 52 52 53 52 51 47 44 46 39 36 38 40 36 37 38 36 33 36 38 40 47 39 24 27 33 45 38 40 40 39 39 42 33 32 41 52 56 60 45 49 57 60 61
52 53 53 53 52 52 48 45 46 41 38 39 45 45 41 40 37 33 38 37 37 37 34 35 37 35 44 42 46 42 41 37 37 34 35 38 55 55 53 55 57 59 57 58
51 52 53 53 51 51 50 42 48 47 41 39 42 46 46 45 43 39 37 37 40 43 36 38 40 37 39 45 40 48 44 46 43 45 44 52 58 58 60 58 59 58 57 57
52 52 53 52 51 51 50 44 44 44 40 35 37 39 45 45 45 45 35 37 43 44 43 43 39 36 39 38 46 45 47 49 47 48 51 53 57 57 57 58 59 58 58 60
52 52 52 52 52 52 51 44 45 44 38 31 35 47 42 47 44 44 43 42 42 40 44 43 39 38 43 39 43 47 51 51 47 48 50 52 55 60 58 58 58 59 60 61
52 52 52 52 51 50 48 46 46 44 37 30 33 39 43 45 43 43 43 41 39 37 37 38 39 41 41 41 43 41 49 48 50 49 52 54 56 61 59 57 57 59 60 60
52 53 51 51 51 51 44 36 42 43 43 33 25 37 39 44 41 41 40 40 40 40 41 38 43 46 41 38 39 48 49 51 51 54 57 57 58 65 62 59 58 60 61 62
52 52 51 51 51 46 40 39 44 47 43 36 33 31 41 45 41 40 40 45 43 42 42 38 40 41 44 39 36 46 50 52 53 55 57 55 57 56 60 61 63 60 62 63
51 51 51 51 50 46 43 47 50 46 42 42 33 33 36 46 40 39 44 41 42 42 40 42 43 43 43 36 45 49 51 51 53 55 57 60 58 57 57 59 60 60 61 62
51 51 51 44 41 38 40 52 50 44 40 35 35 32 31 43 40 42 41 42 36 40 39 39 41 38 35 41 44 47 48 49 51 53 56 59 59 57 58 60 60 60 60 61
50 44 39 33 40 51 50 41 36 35 34 39 34 40 35 39 39 36 39 40 37 35 39 44 39 36 44 44 45 47 48 50 53 53 53 57 56 59 58 60 59 61 61 60
39 36 34 39 48 42 39 34 30 31 30 37 38 38 36 42 35 34 41 34 35 32 37 39 37 36 43 45 46 50 51 52 53 55 55 57 58 58 57 58 59 59 59 59
42 43 45 43 40 36 33 27 30 30 29 38 37 39 41 40 42 38 39 35 36 32 40 38 35 41 46 47 48 50 52 54 55 55 56 57 57 57 56 55 56 57 58 59
44 42 39 32 32 30 29 29 28 30 36 38 40 36 40 41 42 38 37 33 33 42 35 35 39 44 46 48 50 52 55 56 55 57 58 57 57 58 57 55 56 57 57 57
37 35 29 30 28 32 34 34 35 39 35 37 39 37 37 36 35 36 33 37 38 32 32 34 40 43 45 48 50 53 52 53 54 54 56 58 57 56 57 57 58 59 58 57
36 33 29 32 36 38 37 38 36 38 37 36 35 36 37 33 34 36 35 33 32 33 33 39 42 43 46 49 50 51 51 50 50 51 53 53 54 54 52 53 54 57 58 57
36 35 33 36 35 36 37 37 37 38 37 37 38 34 33 32 34 33 33 32 32 34 41 42 44 45 45 47 50 50 51 50 50 50 50 51 51 51 52 50 51 53 56 57
33 32 36 34 35 35 36 36 36 39 36 31 35 32 31 36 33 32 34 33 36 41 42 44 46 45 45 48 51 51 50 49 49 49 48 47 48 48 50 47 47 48 49 50
MSLP
1007.01 1007.10 1007.83 1008.40 1008.97 1009.37 1009.88 1010.11 1009.96 1009.93 1010.09 1010.92 1010.39 1008.48 1005.61 1003.86 1002.55 1001.91 1001.04 1000.69 1000.83 1000.76 1000.52 1000.40 1000.36 999.86 999.32 999.24 1000.03 1002.02 1002.95 1004.14 1005.45 1005.10 1004.84 1004.88 1005.63 1006.68 1008.02 1009.91 1011.08 1011.03 1010.35 1008.41
1006.41 1006.27 1006.90 1007.67 1008.25 1008.72 1009.33 1009.18 1009.54 1009.90 1009.38 1008.79 1008.64 1007.72 1006.62 1005.30 1003.59 1002.35 1001.93 1001.30 1000.84 1000.56 1000.58 1000.62 999.97 999.54 998.99 999.10 999.82 1000.95 1002.14 1003.38 1005.05 1005.53 1005.65 1005.38 1005.45 1006.41 1007.15 1008.16 1009.20 1009.86 1009.52 1007.60
1005.80 1005.46 1006.38 1007.02 1007.44 1008.05 1009.01 1009.64 1009.64 1009.13 1009.11 1007.58 1007.89 1007.66 1006.86 1005.75 1004.38 1003.61 1002.87 1002.37 1001.69 1001.05 1000.81 1000.57 1000.40 999.98 999.62 999.32 999.73 1000.22 1000.99 1002.43 1003.25 1003.55 1004.42 1004.98 1005.49 1005.97 1006.52 1007.10 1008.35 1008.42 1007.80 1006.99
1005.60 1005.73 1006.19 1006.65 1007.05 1007.45 1008.29 1008.95 1008.59 1007.86 1008.17 1007.85 1007.43 1007.18 1006.28 1005.79 1005.17 1003.91 1003.31 1003.10 1002.43 1001.71 1001.42 1001.29 1001.27 1000.68 1000.15 1000.05 1000.00 1000.62 1001.33 1002.32 1003.08 1003.19 1003.59 1004.08 1004.27 1004.72 1005.35 1005.98 1006.07 1006.54 1006.34 1006.12
1005.41 1005.55 1005.82 1006.28 1006.55 1007.27 1007.91 1008.55 1008.52 1008.38 1007.91 1007.57 1007.66 1007.24 1006.30 1005.79 1005.04 1004.58 1003.90 1003.79 1002.93 1002.52 1002.57 1002.44 1002.12 1001.39 1001.14 1001.07 1001.31 1001.60 1002.09 1002.69 1002.83 1003.31 1003.36 1003.33 1003.70 1003.18 1003.89 1004.27 1004.80 1005.12 1004.82 1004.87
1005.68 1005.56 1005.59 1005.95 1006.30 1007.13 1007.37 1008.84 1008.31 1008.25 1007.50 1007.15 1007.15 1006.41 1006.01 1005.42 1005.47 1004.61 1004.51 1004.18 1003.96 1003.61 1003.26 1002.92 1002.47 1002.27 1002.08 1002.52 1002.59 1002.57 1002.85 1003.22 1003.70 1004.05 1003.61 1003.77 1002.20 1002.40 1003.00 1003.60 1003.78 1003.74 1004.05 1003.78
1005.68 1005.37 1005.35 1005.52 1005.99 1006.80 1007.77 1008.21 1008.15 1008.65 1007.88 1007.31 1006.62 1006.01 1006.10 1005.74 1005.41 1005.30 1004.88 1004.55 1004.47 1004.21 1003.54 1003.02 1002.69 1002.56 1002.66 1002.50 1002.66 1003.08 1003.50 1003.93 1004.25 1004.77 1004.49 1003.81 1001.25 1000.46 1001.13 1002.02 1002.38 1002.83 1002.85 1002.95
1006.10 1005.70 1005.47 1005.62 1006.02 1006.80 1007.47 1007.94 1008.20 1008.45 1008.04 1007.32 1006.68 1005.74 1005.31 1005.48 1005.50 1005.54 1005.17 1004.91 1004.76 1004.55 1004.06 1003.96 1003.68 1003.57 1003.39 1002.60 1002.68 1003.02 1003.53 1004.40 1004.99 1005.17 1004.88 1003.08 1001.76 1001.30 1001.44 1001.76 1002.10 1001.85 1002.07 1002.50
1006.46 1006.17 1006.00 1006.02 1006.32 1006.80 1007.35 1007.82 1008.05 1008.44 1008.52 1007.28 1005.74 1005.89 1005.85 1006.01 1006.14 1006.20 1005.63 1005.23 1004.89 1004.80 1004.79 1004.82 1004.41 1003.92 1003.00 1003.07 1002.88 1002.81 1003.57 1003.76 1004.69 1005.05 1004.39 1002.66 1001.50 1000.44 1000.31 1000.83 1001.20 1001.13 1001.47 1002.06
1006.59 1006.34 1006.21 1006.25 1006.36 1006.81 1007.26 1007.71 1007.98 1008.35 1008.20 1007.17 1006.44 1006.30 1006.21 1006.06 1006.23 1006.35 1006.25 1005.77 1005.57 1005.17 1005.47 1005.82 1005.02 1003.92 1002.78 1002.55 1002.40 1003.01 1003.75 1004.09 1004.28 1004.54 1003.39 1002.16 1000.36 999.90 1000.09 1001.07 1000.74 1000.23 1000.65 1001.08
1006.79 1006.31 1006.22 1006.27 1006.39 1006.79 1007.30 1007.69 1007.66 1008.05 1007.69 1007.21 1006.71 1006.43 1006.02 1005.93 1006.07 1006.36 1006.53 1006.59 1006.26 1006.06 1006.00 1005.63 1004.81 1003.76 1002.86 1002.11 1001.25 1001.21 1001.84 1002.93 1003.54 1003.63 1002.55 1001.15 999.79 1000.22 999.62 999.73 999.17 999.62 1000.09 1000.54
1006.95 1006.65 1006.37 1006.37 1006.54 1006.87 1007.26 1007.66 1007.70 1007.82 1008.05 1007.66 1006.98 1006.28 1006.01 1005.98 1005.89 1006.26 1006.46 1006.58 1006.25 1005.85 1005.53 1005.13 1004.57 1003.89 1002.61 1001.47 1000.94 1000.19 1000.37 1000.20 1000.59 1001.05 999.83 998.97 998.62 998.12 997.98 998.15 998.96 999.44 999.89 999.95
1006.67 1006.68 1006.74 1006.77 1006.86 1007.09 1007.29 1007.67 1007.94 1008.11 1008.09 1007.75 1007.39 1006.36 1005.78 1005.79 1005.88 1005.95 1006.56 1006.61 1006.36 1005.99 1005.98 1005.13 1004.46 1004.08 1003.29 1001.64 1000.25 1000.02 999.30 999.22 999.54 999.92 999.01 998.51 998.26 998.01 998.01 998.25 998.61 999.19 999.47 999.70
1007.53 1007.23 1007.14 1007.08 1007.16 1007.38 1007.38 1007.71 1007.94 1008.06 1008.10 1007.86 1006.68 1005.98 1005.88 1005.43 1005.61 1005.79 1006.11 1006.43 1006.54 1006.43 1005.95 1005.29 1004.69 1004.45 1003.42 1002.35 1001.29 999.96 998.72 998.81 998.81 998.69 998.12 998.06 997.82 997.48 997.76 998.54 999.06 999.10 999.30 999.68
1008.33 1007.83 1007.49 1007.25 1007.58 1007.72 1007.71 1007.88 1008.00 1007.95 1008.50 1008.25 1007.30 1006.40 1005.61 1005.36 1005.44 1005.64 1005.96 1006.34 1006.66 1006.69 1006.32 1005.49 1004.79 1004.31 1003.73 1002.74 1001.68 1000.14 998.51 998.09 998.14 997.25 997.26 997.29 997.31 997.18 997.69 998.35 998.88 998.96 999.14 999.62
1009.04 1008.62 1008.26 1008.08 1008.09 1007.98 1008.16 1008.34 1008.29 1007.97 1007.98 1008.28 1007.93 1006.59 1005.88 1005.43 1005.40 1005.59 1005.97 1006.20 1006.52 1006.60 1005.95 1005.30 1004.54 1003.93 1003.84 1003.26 1001.98 999.58 998.84 998.07 997.87 996.49 996.10 996.15 996.27 995.89 996.89 997.74 998.45 998.48 998.57 999.08
1009.42 1009.03 1008.74 1008.53 1008.33 1008.29 1008.44 1008.52 1008.21 1008.00 1008.13 1008.13 1007.54 1006.68 1005.54 1005.24 1005.42 1005.70 1005.90 1005.92 1005.94 1005.92 1005.31 1004.69 1004.04 1003.81 1003.44 1003.06 1001.92 999.42 998.73 998.51 997.53 996.96 995.62 996.40 996.23 996.15 996.44 996.94 997.37 997.87 998.55 998.91
1009.22 1008.89 1008.65 1008.41 1008.23 1008.14 1008.13 1007.92 1007.57 1007.84 1008.05 1007.78 1007.35 1006.49 1005.83 1005.07 1004.98 1005.32 1005.09 1005.29 1005.40 1005.02 1004.28 1003.67 1003.31 1003.31 1002.88 1001.81 1000.01 999.66 999.24 998.66 997.21 996.39 995.17 994.45 995.10 996.09 996.60 996.86 997.50 997.87 998.44 998.89
1008.97 1008.58 1008.43 1008.58 1008.60 1008.59 1008.25 1007.71 1007.58 1007.92 1008.49 1007.86 1007.26 1006.48 1005.46 1004.96 1004.79 1004.64 1004.96 1004.71 1004.62 1004.26 1003.76 1002.89 1002.81 1002.49 1001.51 1000.28 999.86 999.61 999.31 998.89 998.12 996.82 995.24 995.10 994.73 996.49 996.71 996.71 997.49 997.57 998.17 998.69
1008.85 1008.79 1008.89 1008.82 1008.66 1008.15 1007.89 1007.84 1008.10 1008.20 1008.21 1007.90 1007.09 1006.17 1005.22 1005.10 1004.49 1004.65 1004.29 1003.91 1003.45 1003.24 1002.40 1001.87 1001.77 1001.68 1000.76 1000.35 999.86 999.32 999.20 998.80 997.98 997.08 995.72 995.67 995.35 996.58 996.44 996.52 997.19 997.43 997.61 998.46
1009.85 1009.93 1009.74 1009.18 1008.39 1008.16 1008.11 1008.24 1008.39 1008.32 1008.07 1007.36 1006.52 1005.87 1004.97 1004.61 1004.48 1004.13 1003.38 1003.19 1002.95 1002.40 1001.70 1001.18 1000.78 1000.62 1000.14 999.94 999.73 999.29 999.10 998.57 997.12 996.03 995.55 995.70 995.58 996.21 996.45 997.11 997.51 997.81 998.07 998.63
1010.44 1010.24 1009.89 1009.48 1008.94 1008.63 1008.67 1008.45 1008.36 1008.17 1007.67 1006.74 1005.90 1005.26 1004.65 1004.24 1003.69 1003.55 1003.09 1002.66 1002.16 1001.27 1001.00 1000.33 1000.34 1000.07 1000.18 1000.10 1000.41 999.98 999.05 997.28 996.51 996.89 995.97 996.02 996.43 996.61 996.97 997.47 997.78 998.17 998.43 998.93
1009.97 1010.02 1010.02 1009.98 1009.80 1009.47 1009.01 1008.74 1008.57 1008.15 1007.35 1006.48 1005.87 1005.42 1004.93 1004.35 1004.01 1003.62 1003.03 1002.40 1001.04 1000.51 1000.37 1000.11 1000.22 1000.04 1000.02 998.77 998.10 997.72 997.85 997.95 997.57 997.16 996.97 997.35 997.48 997.63 997.68 998.33 998.84 998.97 999.15 999.32
1010.47 1010.58 1010.66 1010.82 1010.43 1010.16 1009.66 1009.25 1008.85 1008.12 1007.46 1006.49 1006.08 1005.63 1005.11 1004.83 1004.40 1004.04 1003.43 1002.28 1001.37 1000.74 1000.25 1000.55 1000.71 1000.64 1000.42 999.29 998.73 998.52 998.11 997.77 997.81 997.71 997.76 998.09 998.24 998.84 999.00 999.19 999.42 999.59 999.90 1000.05
1011.07 1011.35 1011.72 1011.15 1010.83 1010.21 1009.59 1008.95 1008.42 1007.54 1006.80 1006.51 1005.98 1005.50 1005.16 1004.78 1004.44 1004.38 1003.81 1002.70 1002.17 1001.38 1001.67 1001.26 1001.00 1000.37 999.51 999.04 998.76 998.80 999.82 999.66 999.30 999.01 999.03 999.34 999.53 999.90 1000.31 1000.25 1000.21 1000.24 1000.33 1000.55
1011.55 1011.95 1011.95 1011.30 1010.85 1010.13 1009.41 1008.65 1008.08 1007.10 1006.77 1006.18 1006.03 1005.73 1005.55 1005.48 1005.35 1004.92 1004.43 1003.76 1003.02 1002.30 1001.89 1001.80 1001.21 1000.65 1000.32 999.91 999.91 1000.25 1000.52 1000.35 1000.38 1000.51 1000.49 1000.55 1000.46 1000.61 1001.02 1001.45 1001.17 1000.97 1001.02 1001.32
1012.14 1012.24 1011.76 1011.54 1011.15 1010.66 1009.39 1008.69 1007.80 1007.13 1006.99 1006.92 1006.66 1006.94 1006.69 1006.20 1005.61 1005.51 1005.13 1004.45 1004.13 1003.38 1002.81 1002.38 1002.17 1002.03 1001.63 1001.13 1001.27 1001.61 1001.53 1001.56 1001.62 1001.63 1001.62 1001.68 1001.62 1001.48 1001.40 1001.90 1002.64 1002.34 1002.03 1001.85
Wind_Speed
23 23 22 20 15 11 8 4 5 10 14 8 6 17 9 8 23 4 3 3 8 8 7 10 12 13 13 12 15 14 8 8 7 9 3 5 7 11 9 6 5 3 5 9
19 17 20 18 16 13 3 2 2 5 13 12 13 14 11 11 9 6 3 3 4 5 7 4 5 6 6 9 17 13 9 3 4 5 4 1 5 5 5 5 5 7 6 7
18 10 16 17 17 16 7 3 5 3 6 4 14 16 17 7 15 12 1 3 4 2 5 1 4 2 3 2 6 10 15 7 12 16 5 7 5 5 6 7 5 6 7 5
11 10 13 14 13 16 6 3 2 3 5 9 11 7 3 21 8 9 3 3 4 3 4 4 4 2 2 4 3 5 8 8 6 5 10 11 13 9 12 10 9 9 9 9
9 11 12 13 13 12 5 4 2 2 2 12 14 8 4 16 21 3 11 4 3 5 4 4 4 3 3 2 7 4 1 4 8 7 9 13 11 16 16 17 3 2 6 5
10 7 9 11 12 12 3 1 0 3 1 5 9 12 13 5 2 2 5 4 2 5 1 5 6 7 4 3 1 2 1 5 5 5 5 7 18 15 14 8 5 10 8 10
12 11 9 12 13 11 3 1 2 1 3 3 6 7 16 13 5 1 3 5 5 2 4 4 1 1 4 6 4 7 2 4 3 4 6 9 5 8 17 19 11 7 4 9
12 8 5 5 15 14 3 2 1 1 3 6 6 2 13 14 12 7 2 3 2 2 4 3 1 3 0 7 7 6 8 5 3 6 4 4 1 5 10 10 12 15 10 5
11 8 4 4 13 15 3 2 2 2 2 4 7 7 2 3 3 3 3 3 4 2 1 2 7 6 6 6 5 5 5 3 5 3 7 11 7 7 5 5 7 10 14 9
10 6 7 2 10 15 4 2 3 3 1 4 5 3 0 3 3 3 3 3 0 5 3 3 3 7 3 7 12 7 5 2 12 2 4 6 6 9 7 9 10 8 16 15
17 10 5 2 9 14 4 1 1 2 1 3 4 3 1 1 2 3 2 3 2 0 5 5 5 4 10 6 7 10 9 8 6 2 3 8 6 5 13 9 3 6 8 9
9 10 5 3 8 10 5 1 1 2 1 3 3 4 4 2 2 3 1 1 1 2 3 3 3 3 2 11 14 3 11 8 9 10 7 4 14 12 13 7 7 6 8 5
16 1 4 5 10 9 3 2 2 2 2 4 2 6 3 1 5 4 3 2 1 1 1 2 1 4 2 3 14 5 3 3 5 4 6 6 12 3 4 4 5 5 4 7
17 5 2 4 5 5 3 2 2 1 1 1 4 1 4 2 3 6 5 4 2 0 2 2 1 2 0 3 4 7 7 8 7 2 2 4 4 8 6 6 3 6 6 6
21 12 11 7 10 7 4 3 2 1 2 2 5 7 4 5 4 7 6 5 2 1 2 3 3 2 2 2 2 5 4 7 8 9 9 8 8 15 8 11 8 8 8 6
17 17 10 8 7 3 2 3 3 2 1 1 4 4 4 3 3 6 6 4 3 2 2 3 3 2 2 1 3 8 5 7 6 6 14 8 4 14 14 10 10 9 8 7
13 11 10 9 6 2 2 1 3 4 1 1 4 5 3 2 3 2 2 3 3 3 3 4 4 4 5 4 6 10 15 17 18 10 10 3 5 7 13 11 12 9 7 5
16 9 7 8 7 3 2 2 5 3 2 1 3 4 4 3 3 2 4 3 3 3 3 2 3 4 4 7 12 13 14 17 13 12 7 8 10 8 7 5 7 9 6 5
14 9 4 3 3 2 3 7 4 2 1 3 2 2 3 1 2 3 3 2 3 3 4 4 4 3 6 7 3 4 9 9 15 8 6 10 16 10 9 9 6 7 6 5
10 4 4 3 2 10 7 3 3 3 2 2 3 3 3 1 1 1 2 3 3 3 5 3 4 4 4 6 9 9 12 16 8 7 11 11 12 9 8 8 6 7 7 6
5 4 2 4 10 3 2 3 2 2 3 1 3 4 4 1 2 3 2 2 3 3 3 3 3 2 1 9 15 13 12 12 5 5 6 4 8 8 8 7 5 5 6 4
4 4 4 3 3 2 2 2 3 0 3 3 3 4 2 3 3 2 2 2 2 4 2 3 2 3 2 6 12 8 7 4 9 3 5 6 7 9 10 7 7 6 6 5
1 1 2 4 4 4 3 4 4 4 4 3 5 4 3 3 2 2 3 3 3 2 1 2 3 3 5 10 6 6 3 2 3 6 8 7 9 8 10 9 6 7 7 5
3 4 6 4 4 4 3 4 5 4 4 7 6 3 2 2 3 1 4 3 3 4 2 4 4 6 4 8 7 3 8 8 8 8 8 9 9 8 8 8 7 6 6 5
4 4 5 3 3 4 5 6 4 5 4 3 3 2 0 2 2 3 4 5 3 3 3 2 6 7 6 8 8 10 7 6 8 6 9 9 8 9 8 7 6 6 6 6
3 3 3 3 3 6 4 3 5 3 4 2 0 2 5 4 2 3 4 6 5 4 3 3 7 12 10 10 9 9 6 7 8 8 8 8 9 7 6 6 7 6 5 2
4 3 2 3 4 5 6 2 4 3 4 3 3 5 3 4 3 4 5 3 1 3 6 8 10 9 8 9 10 7 6 7 7 7 8 7 7 7 9 8 5 6 5 4
Wind_Direction
289 246 235 242 243 247 212 231 217 153 150 185 195 228 211 327 221 268 275 201 197 194 184 182 199 204 197 180 160 169 185 150 191 200 197 173 205 186 165 155 232 214 181 263
302 256 221 231 234 215 162 222 201 184 178 199 213 230 243 267 254 276 297 271 209 191 191 187 173 169 219 160 175 155 170 199 151 326 5 318 171 179 149 120 93 190 176 264
307 241 213 226 231 219 179 132 189 156 234 232 210 217 233 262 241 277 70 316 304 133 159 230 147 141 71 93 155 167 158 157 189 219 201 160 185 180 184 153 134 184 216 209
291 209 228 234 247 205 175 132 235 308 173 205 215 176 249 217 252 225 121 236 262 189 160 97 123 200 12 98 250 114 141 204 180 192 195 190 209 191 180 189 190 166 214 205
311 237 230 230 216 184 193 163 165 156 280 222 218 224 207 238 218 276 221 251 166 26 56 52 104 60 81 87 18 98 33 216 174 214 199 192 214 215 193 206 122 93 146 227
339 280 242 224 204 164 121 229 224 310 102 241 206 211 213 237 227 357 152 121 8 59 217 276 242 214 260 231 49 0 321 137 104 222 184 130 245 206 189 197 187 159 185 212
342 266 263 225 194 158 127 218 101 154 270 214 227 216 201 234 173 230 42 152 140 236 311 252 354 3 238 278 244 176 201 111 100 155 112 208 271 210 184 196 199 192 164 174
6 35 45 192 172 156 114 153 119 118 282 279 198 276 201 203 229 214 221 283 161 333 337 43 349 21 190 255 259 217 179 132 145 145 208 290 238 150 144 157 226 198 196 157
7 358 313 163 172 171 102 125 110 84 245 260 298 150 152 138 143 131 218 311 351 316 194 127 187 193 185 172 200 57 134 188 150 168 173 216 202 202 138 78 252 199 192 186
330 313 321 217 187 173 136 145 186 114 262 283 352 60 108 149 127 148 241 304 176 165 179 120 183 221 208 200 170 171 142 112 205 166 217 276 250 145 136 143 232 181 186 196
0 358 326 254 188 180 146 85 238 148 255 231 257 276 216 100 90 137 217 54 303 74 176 176 223 217 210 262 214 172 159 147 185 112 166 240 167 101 156 201 216 195 186 184
322 345 2 350 153 164 116 111 39 25 272 269 306 279 260 255 174 152 111 197 219 226 175 200 183 291 288 200 236 230 192 182 184 186 202 224 181 170 209 161 162 193 179 172
5 114 42 66 127 172 60 104 80 29 281 308 321 227 301 165 206 163 136 269 303 165 279 284 181 225 6 269 213 246 234 151 145 126 211 197 192 213 126 150 150 137 155 173
19 40 347 25 128 150 117 111 176 224 69 331 286 357 294 277 187 185 160 146 47 12 295 318 212 234 322 271 302 249 198 146 171 222 331 47 300 216 157 149 180 140 142 169
18 32 44 69 113 61 52 38 14 55 96 287 285 309 260 271 211 184 138 126 100 5 304 228 213 250 299 280 301 257 208 175 180 217 174 160 202 212 174 163 180 173 158 167
20 24 42 55 47 28 71 18 319 308 80 54 316 276 278 340 136 145 160 144 150 212 242 240 202 213 134 302 269 263 287 308 311 223 177 180 197 214 169 167 172 185 175 193
350 5 12 359 350 35 82 237 258 11 38 270 288 313 281 160 140 146 142 158 208 211 226 221 199 201 184 196 231 271 323 319 308 277 122 92 171 193 178 179 183 152 186 195
330 313 324 331 356 36 11 282 313 170 277 262 292 274 305 175 166 206 173 188 192 221 248 212 200 152 209 236 234 247 299 312 284 224 256 179 121 120 148 124 140 150 174 187
331 322 353 26 37 2 258 290 52 53 148 301 269 307 298 212 256 147 201 209 183 219 227 214 121 240 228 234 260 287 298 295 299 265 140 136 122 145 150 131 156 151 171 187
340 25 34 338 266 305 314 4 17 9 310 221 247 261 264 248 192 216 256 202 210 211 217 180 194 225 235 302 315 291 280 280 277 215 119 128 108 152 140 144 161 168 168 97
21 11 324 272 308 0 46 330 39 291 303 284 280 255 281 271 214 227 235 213 190 233 196 242 176 260 266 345 311 282 259 235 204 130 76 59 113 129 120 120 127 130 116 120
267 292 282 286 337 3 343 279 310 293 269 236 252 309 280 284 217 268 235 260 241 252 218 194 181 56 116 180 249 260 239 50 51 69 73 56 75 110 104 94 92 85 92 98
309 237 310 28 329 3 343 351 334 331 312 285 329 323 311 294 20 306 312 271 252 265 48 66 59 360 360 281 320 332 67 116 76 55 70 95 85 70 86 88 89 103 87 60
45 12 6 26 349 2 317 322 300 280 263 293 314 253 273 316 349 290 310 306 305 351 355 58 5 327 254 220 247 21 9 16 53 50 63 83 78 65 60 73 70 78 81 74
49 41 7 341 300 272 286 280 282 260 258 308 307 275 211 305 12 12 310 325 28 346 57 357 338 351 20 90 72 68 52 35 43 30 59 65 82 85 65 43 47 59 81 80
65 62 343 279 299 318 296 268 288 284 301 284 311 346 27 344 353 308 357 340 350 1 12 344 4 21 24 53 67 59 59 46 52 42 45 51 48 54 89 70 39 29 18 126
34 320 265 235 253 258 272 283 268 311 357 2 17 21 344 297 352 6 354 358 324 329 18 14 17 12 4 36 49 34 44 55 53 53 39 47 36 33 44 51 48 21 13 11